Regional Weather Roundup
Issued by NWS

Home | Current Version | Previous Version | Graphics & Text | Print | Product List | Glossary On
Versions: 1 2 3 4 5 6 7 8 9 10 11 12 13 14 15 16 17 18 19 20 21 22 23 24 25 26 27 28 29 30 31 32 33 34 35 36 37 38 39 40 41 42 43 44 45 46 47 48 49 50
000
ASUS43 KMKX 180211
RWRWI

WISCONSIN REGIONAL WEATHER ROUNDUP
NATIONAL WEATHER SERVICE MILWAUKEE/SULLIVAN WI
800 PM CST FRI NOV 17 2017

NOTE: "FAIR" INDICATES FEW OR NO CLOUDS BELOW 12,000 FEET WITH NO
SIGNIFICANT WEATHER AND/OR OBSTRUCTIONS TO VISIBILITY.

WIZ001-002-006>008-014>016-023>028-180300-
NORTHWEST WISCONSIN

CITY           SKY/WX    TMP DP  RH WIND       PRES   REMARKS
SUPERIOR ARPT  MOCLDY    32  32 100 CALM      29.68S FOG
ASHLAND        CLOUDY    33  31  92 SW3       29.67F FOG
HAYWARD        CLOUDY    33  32  96 N3        29.64F FOG
SIREN          FOG       34  34  99 NE3       29.65F VSB 1/2
CUMBERLAND     FOG       32  32 100 N3        29.64S VSB 1/2
RICE LAKE      FOG       34  34 100 CALM      29.66S VSB 1/4
CHETEK         FOG       34  34 100 CALM      29.63F VSB 1
LADYSMITH      FOG       34  34  99 NW3       29.65R VSB 1
EAU CLAIRE     CLOUDY    36  35  96 N3        29.62F FOG
MENOMONIE      CLOUDY    36  36 100 N3        29.63F FOG
NEW RICHMOND   CLOUDY    35  35  99 N5        29.65S FOG     WCI  31
OSCEOLA        FOG       36  36 100 NW3       29.69S VSB 1
$$

WIZ003>005-009-010-017-018-180300-
NORTH CENTRAL WISCONSIN

CITY           SKY/WX    TMP DP  RH WIND       PRES   REMARKS
MANITOWISH WTR LGT SNOW  32  32 100 CALM      29.61F
ARBOR VITAE    MIX PCPN  34  33  96 CALM      29.61F
WOODRUFF       MIX PCPN  34  33  96 CALM      29.61F
RHINELANDER    LGT SNOW  33  33 100 CALM      29.63S FOG
EAGLE RIVER    LGT SNOW  32  32 100 CALM      29.62S
LAND O LAKES   LGT SNOW  33  33 100 CALM      29.64S
PHILLIPS       DRIZZLE   32  32 100 CALM      29.62F
TOMAHAWK       CLOUDY    32  31  96 CALM      29.61F FOG
MEDFORD        FOG       32  32 100 CALM      29.61F VSB 1
MERRILL        DRIZZLE   33  33 100 CALM      29.63F
$$

WIZ029-030-035-036-043>047-180300-
CENTRAL WISCONSIN

CITY           SKY/WX    TMP DP  RH WIND       PRES   REMARKS
WAUSAU         LGT RAIN  34  34 100 CALM      29.61F FOG
MOSINEE        CLOUDY    34  34 100 CALM      29.62F FOG
MARSHFIELD     LGT RAIN  34  33  96 CALM      29.60F FOG
STEVENS POINT  DRIZZLE   33  33 100 CALM      29.62F
WAUPACA        LGT RAIN  38  37  95 CALM      29.63R
WAUTOMA        CLOUDY    37  36  96 CALM      29.62S FOG
WISC RAPIDS    CLOUDY    36  35  96 CALM      29.62F FOG
CAMP DOUGLAS   CLOUDY    37  36  93 CALM      29.61S FOG
$$

WIZ011>013-019>022-031-037>040-048>050-180300-
NORTHEAST WISCONSIN

CITY           SKY/WX    TMP DP  RH WIND       PRES   REMARKS
ANTIGO         MIX PCPN  32  32 100 CALM      29.62S
SHAWANO        DRIZZLE   38  36  93 CALM      29.64R
OCONTO         CLOUDY    37  37  99 CALM      29.63R
STURGEON BAY   CLOUDY    39  38  96 SW6       29.62F FOG     WCI  35
GREEN BAY      HVY RAIN  38  38 100 CALM      29.63R FOG
MANITOWOC      NOT AVBL
APPLETON       RAIN      37  37 100 CALM      29.60F
CLINTONVILLE   LGT RAIN  36  36 100 CALM      29.63S
OSHKOSH        RAIN      38  38 100 CALM      29.61S FOG
$$

WIZ032>034-041-042-053>061-180300-
SOUTHWEST WISCONSIN

CITY           SKY/WX    TMP DP  RH WIND       PRES   REMARKS
LA CROSSE      LGT RAIN  39  38  96 CALM      29.61S FOG
SPARTA         CLOUDY    35  35 100 CALM      29.62S FOG
VIROQUA        CLOUDY    36  36 100 CALM      29.59S
BOSCOBEL       CLOUDY    39  37  92 CALM      29.62R FOG
PRAIRIE DU CHI CLOUDY    38  37  97 CALM      29.61S FOG
PLATTEVILLE    CLOUDY    40  40 100 CALM      29.60S
$$

WIZ056-057-062-063-064-067-068-180300-
SOUTH CENTRAL WISCONSIN

CITY           SKY/WX    TMP DP  RH WIND       PRES   REMARKS
REEDSBURG      CLOUDY    37  37 100 CALM      29.61R FOG
BARABOO/DELLS  CLOUDY    37  36  97 CALM      29.60F FOG
LONE ROCK      CLOUDY    39  39 100 CALM      29.62R FOG
MINERAL POINT  CLOUDY    39  39 100 CALM      29.59S FOG
MADISON        DRIZZLE   39  39 100 CALM      29.60F FOG
MIDDLETON      CLOUDY    40  40 100 CALM      29.61F
WATERTOWN      DRIZZLE   39  39 100 SW3       29.61S
MONROE         DRIZZLE   37  37 100 S7        29.58F WCI  32
JANESVILLE     DRIZZLE   41  41 100 S6        29.59F
$$

WIZ051-052-058>065-066-070>072-180300-
SOUTHEAST WISCONSIN

CITY           SKY/WX    TMP DP  RH WIND       PRES   REMARKS
MILWAUKEE      LGT RAIN  42  41  96 S10       29.61F FOG
WAUKESHA       LGT RAIN  37  37 100 S6        29.61F FOG     WCI  33
MILWAUKEE/TIMM RAIN      39  37  93 S5        29.62F
RACINE         RAIN      43  41  93 S8        29.62F FOG
BURLINGTON     MIX PCPN  43  43 100 S6        29.60F
KENOSHA        RAIN      43  40  89 S10       29.60F FOG
FOND DU LAC    LGT RAIN  40  37  89 SW5       29.61F FOG
SHEBOYGAN      RAIN      40  40 100 S10       29.62S FOG     WCI  33
WEST BEND      RAIN      37  37 100 S5        29.61F WCI  34
JUNEAU         DRIZZLE   38  37  98 S5        29.62F WCI  34
$$

LSZ147-162-180300-
LAKE SUPERIOR

STATION/POSITION TIME  TEMP    WIND        PRES    WAVE
                       AIR SEA DIR/SP/G            HT/PER
                 (UTC) (F)     (DEG/KT/KT) (MB)    (FT/S)
DEVILS ISLAND    0200   38     290/ 11/ 12 1005.0R
SAXON HARBOR     0140   33     190/  3/  4 1004.1F
$$

LMZ867-665-643>646-180300-
LAKE MICHIGAN

STATION/POSITION TIME  TEMP    WIND        PRES    WAVE
                       AIR SEA DIR/SP/G            HT/PER
                 (UTC) (F)     (DEG/KT/KT) (MB)    (FT/S)
N MID LAKE BUOY  0050   43 48  180/ 21/ 23 1005.3F   9/ 8
NORTHPORT PIER   0140   41     160/  2/  5 1003.4F
SHEBOYGAN LAKESH 0200   41     210/ 12/ 15 1003.3F
PORT WASHINGTON  0130   41     190/  7/ 11 1004.1F
MILWAUKEE LAKESH 0150   42     190/  8/  8   N/A
S MID LAKE BUOY  0050   47 50  150/ 25/ 29 1004.3F   7/ 6
KENOSHA   LAKESH 0200   43     200/  8/ 12 1002.7
$$

TC  - TEMPERATURE IN CELSIUS
VSB - VISIBILITY IN STATUTE MILES
WCI - WIND CHILL INDEX
HX  - HEAT INDEX




USA.gov is the U.S. government's official web portal to all federal, state and local government web resources and services.